[[{"header":{"parameterUnit":"m.s-1","parameterCategory":1,"la1":30.2991,"la2":30.254,"lo1":-89.0895,"lo2":-89.0444,"dy":0.0017,"dx":0.0017,"nx":28,"ny":28,"refTime":"2025-05-30T03:00:00:Z","depth":0,"parameterNumber":2,"parameterNumberName":"U-component_of_WINDS"},"data":[0,0,0,0,0,0,0,0,0,0,0,0,0,0,0,0,0,0,0,0,0,0,0,0,0,0,0,0,0,0,0,0,0,0,0,0,0,0,0,0,0,0,0,0,0,0,0,0,0,0,0,0,0,0,0,0,0,0,0.9054,0.9055,0,0.9138,0.9139,0.914,0.9209,0.9209,0.921,0.9211,0.9298,0.9299,0.9301,0,0,0,0,0,0,0,0,0,0,0,0,0,0.8953,0.8955,0.9054,0.9055,0.9056,0.9138,0.9139,0.9141,0.9209,0.9209,0.921,0.9211,0.9297,0.9299,0.9301,0,0,0,0,0,0,0,0,0,0,0,0,0,0.9013,0.8955,0.9054,0.91,0.9105,0.9138,0.9139,0.9141,0.9208,0.9209,0.921,0.9211,0.9297,0.9299,0.9302,0.9296,0,0,0.9309,0.931,0,0,0,0,0,0,0,0,0.901,0.9017,0.9092,0.9097,0.9102,0.9164,0.9136,0.9193,0.9208,0.9169,0.9211,0.9212,0.9253,0.9259,0.9272,0.93,0.9304,0.9309,0.9311,0.9312,0.9313,0,0,0,0,0,0,0,0.9005,0.9013,0.9087,0.9093,0.9099,0.9117,0.9126,0.9147,0.9204,0.9173,0.9178,0.9187,0.9256,0.927,0.9275,0.9305,0.9309,0.9312,0.9313,0.9314,0.9333,0.9332,0,0,0,0,0,0,0.8994,0.901,0.9085,0.909,0.9058,0.9118,0.9129,0.9143,0.9204,0.9214,0.9186,0.919,0.9265,0.9272,0.9278,0.9275,0.9312,0.9314,0.9316,0.9334,0.9332,0.9331,0,0,0,0,0,0,0.8991,0.9,0.9081,0.9051,0.9063,0.9118,0.9134,0.9144,0.9159,0.9214,0.9224,0.919,0.9266,0.9275,0.9291,0.9279,0.9315,0.9318,0.9335,0.9333,0.9332,0.927,0,0,0,0,0,0,0.8988,0.8999,0.8997,0.9051,0.9064,0.9092,0.9134,0.9145,0.9163,0.9168,0.922,0.923,0.9267,0.9287,0.9293,0.9283,0.932,0.9336,0.9334,0.9332,0.9273,0.9266,0.926,0,0,0,0,0,0.8984,0.8976,0.8996,0.9005,0.9063,0.9091,0.9099,0.9142,0.9161,0.916,0.9196,0.9228,0.928,0.9288,0.9296,0.9286,0.9337,0.9335,0.9333,0.9276,0.9267,0.926,0,0,0,0,0,0,0.8919,0.8984,0.9007,0.9016,0.9047,0.9103,0.9102,0.9132,0.916,0.9164,0.9217,0.9228,0.9238,0.9265,0.9272,0.9284,0.9313,0.9312,0.9267,0.9259,0.9253,0.9246,0.9322,0,0,0,0,0,0.8906,0.8923,0.8979,0.8981,0.8996,0.9046,0.906,0.9091,0.9126,0.914,0.9177,0.921,0.9234,0.9248,0.9273,0.9277,0.929,0.9275,0.9269,0.9263,0.9262,0.9266,0.926,0.9324,0.9324,0.9324,0,0,0.8879,0.8916,0.8924,0.8969,0.8998,0.9014,0.9057,0.9073,0.9087,0.9143,0.916,0.9188,0.9229,0.9239,0.9245,0.9261,0.9247,0.926,0.9256,0.9257,0.9263,0.9256,0.9251,0.9322,0.9323,0.9323,0,0,0.8837,0.8867,0.8872,0.89,0.8942,0.8976,0.8977,0.9028,0.9049,0.9067,0.9109,0.9126,0.9166,0.9193,0.9212,0.9181,0.9212,0.9188,0.9155,0.9158,0.9153,0.9149,0.9137,0.9132,0.9187,0.9186,0.9186,0,0.8798,0.8825,0.8871,0.8885,0.8904,0.8955,0.8961,0.8986,0.9034,0.9045,0.9062,0.9113,0.9145,0.9161,0.9154,0.9168,0.9171,0.9182,0.915,0.9146,0.9143,0.9132,0.9128,0.9183,0.9184,0.9184,0.9184,0,0.8774,0.8792,0.8791,0.8836,0.8855,0.8865,0.8913,0.8927,0.8956,0.8988,0.9006,0.9045,0.9078,0.9085,0.9114,0.9106,0.9115,0.914,0.9169,0.9133,0.9124,0.912,0.9178,0.918,0.9181,0.9181,0,0,0.8693,0.8764,0.8763,0.8784,0.8834,0.8849,0.8861,0.8894,0.8905,0.8936,0.8948,0.8981,0.9004,0.9026,0.9058,0.9061,0.9034,0.9087,0.9088,0.9075,0.9027,0.9007,0.9002,0.9055,0.9055,0.9054,0.9024,0,0.8659,0.8683,0.8726,0.8736,0.8753,0.8803,0.8814,0.8846,0.8876,0.8896,0.893,0.8952,0.8982,0.8995,0.9,0.9036,0.9025,0.9039,0.9066,0.9066,0.9053,0.8997,0.8976,0.8945,0.9021,0.902,0.902,0,0.8622,0.8651,0.8662,0.8712,0.8721,0.873,0.8763,0.8781,0.8819,0.8841,0.8865,0.89,0.8916,0.8943,0.8966,0.8974,0.8988,0.9008,0.9007,0.9011,0.904,0.8998,0.8936,0.8931,0.9015,0.9015,0.9016,0,0.8561,0.8602,0.8615,0.8631,0.869,0.8694,0.8719,0.8758,0.8775,0.8805,0.8816,0.8847,0.8864,0.8887,0.893,0.8946,0.8948,0.8979,0.8966,0.8965,0.8963,0.8962,0.8902,0.8974,0.8974,0.8974,0.8974,0,0.8518,0.8523,0.8588,0.8595,0.8603,0.8652,0.8658,0.8688,0.8722,0.8736,0.8782,0.8794,0.8851,0.887,0.8904,0.8917,0.8925,0.8943,0.8951,0.8938,0.8935,0.8947,0.895,0.8973,0.8973,0.8973,0.8973,0,0.845,0.8494,0.8511,0.8564,0.8578,0.8581,0.8627,0.8637,0.867,0.8688,0.8695,0.8747,0.8772,0.8817,0.8855,0.8878,0.8884,0.89,0.8871,0.8876,0.886,0.8861,0.8804,0.8799,0.8874,0.8873,0.8873,0,0.8419,0.8424,0.8478,0.8491,0.8514,0.8534,0.8551,0.8601,0.8617,0.8661,0.8665,0.8693,0.8718,0.8756,0.8798,0.8827,0.8843,0.8821,0.8848,0.8834,0.8842,0.884,0.8841,0.8815,0.8814,0.8813,0.8812,0,0.8359,0.8381,0.8404,0.8435,0.8454,0.8481,0.851,0.8518,0.8574,0.859,0.8616,0.8636,0.8675,0.8702,0.8738,0.8764,0.8797,0.8804,0.8802,0.8788,0.877,0.8779,0.8853,0.8805,0.8805,0.8806,0.8806,0.8807,0.8309,0.8315,0.8354,0.8379,0.8406,0.8432,0.8443,0.8478,0.8501,0.8536,0.8564,0.8587,0.8626,0.8677,0.87,0.872,0.8735,0.8733,0.8733,0.8731,0.8725,0.8768,0.8727,0.8727,0.8727,0.8727,0.8728,0,0.825,0.8278,0.83,0.8339,0.8358,0.8389,0.8423,0.8437,0.8457,0.8489,0.8513,0.8543,0.857,0.8614,0.8645,0.8652,0.8668,0.8658,0.8657,0.8663,0.871,0.8708,0.8645,0.8645,0.8645,0.8645,0.8645,0.8645,0.8222,0.8235,0.8261,0.8288,0.8316,0.8339,0.8356,0.838,0.8407,0.8438,0.846,0.8489,0.8526,0.856,0.8586,0.8598,0.8607,0.8592,0.8609,0.8652,0.866,0.8667,0.8665,0.8594,0.8594,0.856,0.856,0.856]},{"header":{"parameterUnit":"m.s-1","parameterCategory":1,"la1":30.2991,"la2":30.254,"lo1":-89.0895,"lo2":-89.0444,"dy":0.0017,"dx":0.0017,"nx":28,"ny":28,"refTime":"2025-05-30T03:00:00:Z","depth":0,"parameterNumber":3,"parameterNumberName":"V-component_of_WINDS"},"data":[0,0,0,0,0,0,0,0,0,0,0,0,0,0,0,0,0,0,0,0,0,0,0,0,0,0,0,0,0,0,0,0,0,0,0,0,0,0,0,0,0,0,0,0,0,0,0,0,0,0,0,0,0,0,0,0,0,0,-0.87,-0.8701,0,-0.8728,-0.8728,-0.8728,-0.8749,-0.8749,-0.875,-0.875,-0.8776,-0.8777,-0.8777,0,0,0,0,0,0,0,0,0,0,0,0,0,-0.8666,-0.8667,-0.87,-0.8701,-0.8701,-0.8728,-0.8728,-0.8728,-0.8749,-0.8749,-0.875,-0.875,-0.8776,-0.8777,-0.8777,0,0,0,0,0,0,0,0,0,0,0,0,0,-0.8686,-0.8667,-0.87,-0.8715,-0.8716,-0.8728,-0.8728,-0.8728,-0.8749,-0.8749,-0.875,-0.875,-0.8776,-0.8776,-0.8777,-0.8776,0,0,-0.878,-0.878,0,0,0,0,0,0,0,0,-0.8685,-0.8687,-0.8712,-0.8714,-0.8715,-0.8735,-0.8726,-0.8744,-0.8749,-0.8737,-0.875,-0.875,-0.8762,-0.8764,-0.8768,-0.8777,-0.8778,-0.878,-0.878,-0.878,-0.8781,0,0,0,0,0,0,0,-0.8684,-0.8686,-0.8711,-0.8713,-0.8715,-0.872,-0.8723,-0.8729,-0.8747,-0.8738,-0.8739,-0.8742,-0.8763,-0.8768,-0.8769,-0.8779,-0.878,-0.878,-0.8781,-0.8781,-0.879,-0.879,0,0,0,0,0,0,-0.868,-0.8685,-0.871,-0.8712,-0.8701,-0.872,-0.8724,-0.8729,-0.8747,-0.875,-0.8742,-0.8743,-0.8766,-0.8768,-0.877,-0.8772,-0.878,-0.8781,-0.8782,-0.879,-0.879,-0.879,0,0,0,0,0,0,-0.8679,-0.8682,-0.8709,-0.8699,-0.8703,-0.872,-0.8726,-0.8729,-0.8734,-0.8751,-0.8754,-0.8743,-0.8767,-0.8769,-0.8775,-0.8773,-0.8781,-0.8782,-0.8791,-0.879,-0.879,-0.8773,0,0,0,0,0,0,-0.8678,-0.8682,-0.8681,-0.8699,-0.8703,-0.8713,-0.8726,-0.8729,-0.8735,-0.8737,-0.8753,-0.8756,-0.8767,-0.8774,-0.8776,-0.8774,-0.8783,-0.8791,-0.8791,-0.879,-0.8774,-0.8773,-0.8771,0,0,0,0,0,-0.8677,-0.8674,-0.8681,-0.8684,-0.8703,-0.8713,-0.8716,-0.8729,-0.8735,-0.8735,-0.8746,-0.8755,-0.8773,-0.8774,-0.8777,-0.8775,-0.8791,-0.8791,-0.879,-0.8775,-0.8773,-0.8771,0,0,0,0,0,0,-0.8655,-0.8677,-0.8684,-0.8688,-0.8699,-0.8717,-0.8717,-0.8726,-0.8735,-0.8736,-0.8752,-0.8756,-0.8761,-0.8768,-0.877,-0.8776,-0.8783,-0.8783,-0.8771,-0.8769,-0.8768,-0.8766,-0.8783,0,0,0,0,0,-0.8651,-0.8657,-0.8676,-0.8677,-0.8682,-0.8699,-0.8703,-0.8713,-0.8725,-0.8729,-0.8741,-0.8752,-0.876,-0.8765,-0.8773,-0.8776,-0.878,-0.8776,-0.8774,-0.8773,-0.8773,-0.8777,-0.8776,-0.8788,-0.8788,-0.8788,0,0,-0.8641,-0.8654,-0.8657,-0.8673,-0.8683,-0.869,-0.8702,-0.8708,-0.8714,-0.873,-0.8737,-0.8746,-0.8759,-0.8764,-0.8767,-0.8771,-0.877,-0.8772,-0.8771,-0.8772,-0.8776,-0.8775,-0.8774,-0.8788,-0.8788,-0.8788,0,0,-0.8628,-0.8638,-0.8641,-0.8651,-0.8666,-0.8678,-0.8678,-0.8696,-0.8703,-0.871,-0.8723,-0.873,-0.8743,-0.8753,-0.8759,-0.8752,-0.8762,-0.8755,-0.8747,-0.875,-0.8749,-0.8748,-0.8747,-0.8747,-0.8754,-0.8754,-0.8754,0,-0.8615,-0.8626,-0.8642,-0.8648,-0.8655,-0.8672,-0.8675,-0.8684,-0.87,-0.8705,-0.871,-0.8728,-0.8738,-0.8746,-0.8745,-0.8749,-0.8751,-0.8753,-0.8748,-0.8747,-0.8747,-0.8746,-0.8746,-0.8753,-0.8754,-0.8754,-0.8754,0,-0.861,-0.8618,-0.8618,-0.8636,-0.8643,-0.8647,-0.8664,-0.867,-0.8679,-0.869,-0.8699,-0.8711,-0.8723,-0.8726,-0.8735,-0.8736,-0.8738,-0.8745,-0.8753,-0.8745,-0.8744,-0.8744,-0.8752,-0.8753,-0.8753,-0.8753,0,0,-0.8583,-0.861,-0.861,-0.8619,-0.8638,-0.8644,-0.8651,-0.8664,-0.8669,-0.868,-0.8686,-0.8698,-0.8705,-0.8713,-0.8723,-0.8726,-0.8722,-0.8733,-0.8733,-0.8731,-0.8726,-0.8721,-0.8721,-0.8728,-0.8728,-0.8728,-0.8725,0,-0.8574,-0.8587,-0.8602,-0.861,-0.8618,-0.8635,-0.864,-0.8652,-0.8663,-0.8672,-0.8683,-0.8692,-0.87,-0.8705,-0.8709,-0.8722,-0.8721,-0.8722,-0.8735,-0.8735,-0.8732,-0.872,-0.8715,-0.8712,-0.8725,-0.8725,-0.8725,0,-0.8565,-0.8577,-0.8586,-0.8606,-0.861,-0.8615,-0.8629,-0.8637,-0.8652,-0.866,-0.8669,-0.8681,-0.8689,-0.8695,-0.8707,-0.8707,-0.8713,-0.8721,-0.8721,-0.8723,-0.873,-0.8723,-0.8711,-0.871,-0.8725,-0.8725,-0.8725,0,-0.8547,-0.8565,-0.8573,-0.858,-0.8603,-0.8607,-0.8616,-0.8632,-0.8639,-0.8651,-0.8657,-0.8669,-0.8676,-0.8686,-0.8701,-0.8704,-0.8712,-0.8719,-0.8719,-0.8718,-0.872,-0.872,-0.8709,-0.8722,-0.8722,-0.8722,-0.8722,0,-0.8536,-0.8541,-0.8566,-0.8571,-0.8578,-0.8595,-0.8601,-0.8612,-0.8626,-0.8634,-0.8648,-0.8655,-0.8674,-0.8684,-0.8695,-0.8704,-0.8707,-0.8714,-0.8717,-0.8713,-0.8712,-0.8717,-0.8718,-0.8722,-0.8722,-0.8722,-0.8722,0,-0.8516,-0.8533,-0.8544,-0.8565,-0.8571,-0.8575,-0.8594,-0.86,-0.8612,-0.8622,-0.8625,-0.8644,-0.8656,-0.8672,-0.8688,-0.8696,-0.8704,-0.8709,-0.87,-0.8702,-0.8701,-0.8701,-0.8694,-0.8695,-0.8707,-0.8706,-0.8706,0,-0.8509,-0.8514,-0.8536,-0.8543,-0.8553,-0.8563,-0.8572,-0.859,-0.8598,-0.8616,-0.862,-0.8633,-0.8645,-0.8663,-0.8679,-0.8692,-0.8697,-0.8694,-0.8699,-0.8696,-0.8698,-0.8698,-0.8699,-0.8693,-0.8692,-0.8692,-0.8692,0,-0.8494,-0.8503,-0.8515,-0.853,-0.854,-0.8552,-0.8565,-0.857,-0.859,-0.8599,-0.8612,-0.8621,-0.8639,-0.8653,-0.8668,-0.8678,-0.8689,-0.869,-0.8691,-0.8687,-0.8683,-0.8686,-0.8697,-0.869,-0.8691,-0.8691,-0.8691,-0.8691,-0.8481,-0.8487,-0.8505,-0.8518,-0.853,-0.8542,-0.855,-0.8564,-0.8575,-0.8592,-0.8601,-0.8615,-0.8631,-0.8653,-0.8662,-0.8673,-0.8677,-0.8678,-0.8678,-0.8678,-0.8678,-0.8681,-0.8676,-0.8676,-0.8676,-0.8676,-0.8676,0,-0.8469,-0.8482,-0.8493,-0.8512,-0.8523,-0.8533,-0.8548,-0.8556,-0.8568,-0.8582,-0.8594,-0.861,-0.8624,-0.8641,-0.8655,-0.8661,-0.8666,-0.8664,-0.8664,-0.8666,-0.8673,-0.8671,-0.866,-0.866,-0.866,-0.866,-0.866,-0.866,-0.8464,-0.8474,-0.8485,-0.8503,-0.8515,-0.8529,-0.8537,-0.8549,-0.8561,-0.8578,-0.859,-0.8601,-0.8617,-0.8633,-0.8646,-0.8651,-0.8656,-0.8653,-0.8659,-0.8664,-0.8666,-0.8667,-0.8666,-0.8653,-0.8653,-0.8652,-0.8652,-0.8652]}]]